Temp
11 11 10 10 10 9 8 9 9 9 8 8 8 7 7 6 6 5 5 5 5 5
12 11 11 11 10 10 10 9 9 9 8 8 8 8 7 6 6 6 6 5 5 5
11 11 11 11 11 10 10 10 9 9 9 8 8 7 7 7 6 6 5 5 4 5
12 12 11 11 11 11 10 10 10 9 8 8 8 8 7 6 5 5 4 4 4 4
11 11 11 11 10 10 10 10 10 9 9 8 7 8 7 6 5 5 5 4 4 4
9 8 8 8 8 8 8 8 8 8 8 9 8 7 7 7 6 5 4 4 4 3
6 6 6 6 7 7 7 6 6 7 7 7 8 7 7 6 6 5 4 4 3 3
4 5 5 5 5 5 5 5 6 5 6 6 6 6 7 6 5 5 4 3 3 2
3 3 3 3 4 4 4 5 5 5 5 5 5 6 6 8 5 5 4 4 3 2
2 2 2 2 3 3 3 3 3 4 4 5 5 5 5 5 6 5 4 4 3 2
2 1 1 1 1 2 2 2 2 2 3 3 4 4 4 4 5 4 4 3 3 2
1 1 1 1 0 0 0 -0 0 1 1 2 2 2 3 3 3 4 3 3 2 2
0 -0 -0 -1 -0 -1 -1 -1 -1 -1 -1 -0 1 1 1 2 2 4 3 3 2 3
-1 -1 -1 -1 -1 -1 -1 -1 -1 -0 -1 -1 -1 -0 -0 1 0 1 2 1 0 0
Height
927 925 922 920 918 916 913 910 907 905 904 901 899 897 894 892 889 887 885 882 880 878
923 921 919 917 915 914 911 908 906 903 901 899 897 895 892 890 887 885 883 881 879 877
919 917 915 913 910 909 907 905 903 900 897 895 893 891 888 886 885 881 880 878 876 873
913 911 910 908 905 903 902 900 898 895 893 890 888 886 883 882 881 878 876 874 872 870
908 907 904 902 901 899 897 895 892 890 887 885 883 880 878 877 875 872 871 869 868 866
905 902 900 898 895 893 890 888 885 883 880 878 876 874 871 869 867 866 864 863 861 859
904 901 897 894 890 887 884 881 878 875 872 869 867 865 864 862 858 857 855 855 854 853
904 900 896 891 887 884 880 876 872 868 864 861 858 855 853 852 850 848 847 845 846 845
904 899 895 890 885 880 875 871 866 861 856 851 847 844 841 840 839 837 835 835 836 837
902 897 892 888 883 877 871 866 860 854 849 842 838 834 831 829 828 827 826 826 824 828
901 896 890 884 879 873 868 861 855 849 842 834 828 824 820 818 818 815 815 817 816 818
898 892 887 881 875 869 863 857 850 844 837 830 821 816 811 809 807 803 801 803 805 807
894 888 883 877 871 865 859 852 846 839 833 825 816 809 803 800 797 794 793 793 792 794
890 884 878 872 867 860 854 847 840 832 826 820 813 805 799 793 790 787 786 785 786 788
Wind_Speed
14 13 13 12 13 12 12 13 13 13 12 13 13 12 11 9 9 11 10 9 7 6
18 17 17 16 16 16 15 15 14 14 13 13 12 12 12 10 10 9 9 8 7 6
24 23 22 21 22 20 19 18 17 16 15 14 14 12 12 12 11 10 8 7 7 6
27 27 27 27 28 27 24 24 22 21 19 18 17 16 15 14 13 11 9 9 8 8
24 26 28 30 33 33 32 31 30 28 25 23 21 19 19 17 14 13 12 10 10 10
19 19 20 22 23 24 27 28 32 33 33 31 28 25 23 22 19 18 16 14 12 12
19 20 19 21 21 22 23 23 25 26 29 34 36 29 28 24 23 22 20 18 15 14
21 21 22 23 24 25 26 25 25 25 27 28 30 34 34 30 27 23 21 18 17 15
21 23 23 24 25 25 26 27 28 29 30 31 32 34 42 43 29 26 24 21 17 16
23 24 24 26 26 27 27 28 28 30 31 34 34 37 39 46 39 29 26 24 18 17
24 26 26 27 28 28 29 29 29 30 32 35 35 38 39 42 45 33 28 25 20 18
26 27 28 29 30 30 29 30 30 31 34 35 37 37 38 38 36 35 31 27 24 21
27 27 28 29 29 29 27 29 29 31 31 33 35 34 34 35 33 34 30 25 25 27
25 27 27 28 28 28 29 29 31 31 31 31 29 31 32 31 26 26 25 23 21 23
Wind_Direction
287 294 303 316 324 327 329 330 333 333 331 334 336 334 343 353 5 7 12 11 3 349
281 285 291 296 300 305 311 314 313 315 312 312 316 316 318 323 333 341 348 350 351 345
282 281 283 284 286 288 294 298 296 295 296 294 296 296 297 299 298 311 317 321 326 329
282 282 282 281 282 283 284 285 285 285 284 284 286 283 282 277 278 282 287 297 304 299
297 293 290 288 287 288 287 285 282 280 278 277 274 275 271 267 261 267 268 275 280 285
336 328 318 312 310 307 300 295 289 282 277 274 274 269 266 264 267 265 263 262 268 275
353 346 340 334 330 325 319 309 303 292 282 275 272 266 265 259 258 255 255 257 262 263
350 347 344 340 335 328 322 315 308 301 293 285 275 264 258 254 249 247 246 245 251 253
347 344 341 338 335 331 327 321 314 306 298 291 281 272 266 257 245 243 239 239 245 249
341 338 334 331 328 325 322 320 316 313 306 298 289 283 277 266 250 242 237 235 230 239
333 330 327 325 323 320 318 316 313 313 312 306 298 291 282 274 261 239 236 234 231 231
329 326 325 323 321 320 317 316 314 314 315 314 308 302 291 280 262 239 232 228 226 226
322 320 319 320 319 317 314 313 313 313 313 315 313 312 305 291 269 244 236 230 226 232
323 320 318 319 320 316 313 310 310 311 311 312 312 315 314 305 278 255 254 243 234 234